Locarno Airport LSZL

Flugplatz Daten

Name: Locarno Airport

Ident: LSZL

Lat: 46,16080093

Long: 8,878609657

Platzhöhe: 650 ft

IataCode: ZJI

City:

Metar

2022/08/10 20:20
LSZL 102020Z AUTO VRB01KT 9999NDV FEW077 23/17 Q1018 RMK

Taf

Gewünschte Webcam nicht vorhanden? Dann fügen Sie eine hinzu. Sie wird dann so schnell wie möglich freigeschaltet
Url: Title: